Location: Igon
(43.1667°N, 0.2333°W)
Time: 09:20:24
(UTC+00:00)

Cosmos 1151 Rocket - Pass Details

Date: 29 November 2020
Orbit: 593 x 614 km, 82.5° (Epoch: 23 January)

Event Time Altitude Azimuth Distance (km) Brightness Sun altitude
Exits shadow 05:53:59 20° 266° (W) 1,401 4.3 -13.7°
Drops below altitude 10° 05:56:46 10° 225° (SW) 1,934 5.3 -13.3°
Sets 05:59:25 0° 209° (SSW) 2,835 6.3 -12.8°
